Cuero, Texas, United States (77954)
Lat: 29.09N, Lon: 97.29W
Wx Zone: TXZ224
Local Info
Past Weather Observations for Today

NOTE: This archive is for the closest National Weather Service station to Cuero. Information may differ from the station used for current weather conditions.

Click here for Long-term Archive

Time Weather Temperature Dewpoint Humidity Pressure Winds Precip Visibility
09:51
Partly Cloudy
63°F / 17°C 55°F / 13°C 77% 30.15 in
(1021 mb)
E 15 mph
(E 24 kph)
- 10SM
08:51
Partly Cloudy
57°F / 14°C 54°F / 12°C 88% 30.15 in
(1021 mb)
E 13.8 mph
(E 22 kph)
- 10SM
08:47
Partly Cloudy
57°F / 14°C 52°F / 11°C 82% 30.15 in
(1021 mb)
E 13.8 mph
(E 22 kph)
- 10SM
07:51
Overcast
55°F / 13°C 52°F / 11°C 88% 30.15 in
(1021 mb)
E 13.8 mph
(E 22 kph)
- 10SM
07:24
Overcast
55°F / 13°C 52°F / 11°C 88% 30.15 in
(1021 mb)
E 12.7 mph
(E 20 kph)
- 10SM
07:04
Overcast
55°F / 13°C 52°F / 11°C 88% 30.15 in
(1021 mb)
E 13.8 mph
(E 22 kph)
- 10SM
06:51
Overcast
55°F / 13°C 52°F / 11°C 88% 30.12 in
(1020 mb)
E 15 mph
(E 24 kph)
- 10SM
06:35
Overcast
54°F / 12°C 52°F / 11°C 94% 30.12 in
(1020 mb)
ENE 12.7 mph
(ENE 20 kph)
- 10SM
06:12
Overcast
54°F / 12°C 50°F / 10°C 88% 30.12 in
(1020 mb)
ENE 10.4 mph
(ENE 17 kph)
- 10SM
05:51
Fair
54°F / 12°C 50°F / 10°C 88% 30.15 in
(1021 mb)
ENE 8.1 mph
(ENE 13 kph)
- 10SM
05:22
Overcast
54°F / 12°C 50°F / 10°C 88% 30.15 in
(1021 mb)
ENE 10.4 mph
(ENE 17 kph)
- 10SM
05:05
Overcast
54°F / 12°C 50°F / 10°C 88% 30.15 in
(1021 mb)
ENE 6.9 mph
(ENE 11 kph)
- 10SM
04:58
Overcast
54°F / 12°C 50°F / 10°C 88% 30.15 in
(1021 mb)
ENE 9.2 mph
(ENE 15 kph)
- 10SM
04:51
Overcast
54°F / 12°C 50°F / 10°C 88% 30.15 in
(1021 mb)
NE 8.1 mph
(NE 13 kph)
- 10SM
04:32
Mostly Cloudy
54°F / 12°C 50°F / 10°C 88% 30.15 in
(1021 mb)
NE 5.8 mph
(NE 9 kph)
- 10SM
03:51
Partly Cloudy
54°F / 12°C 50°F / 10°C 88% 30.18 in
(1022 mb)
E 5.8 mph
(E 9 kph)
- 10SM
03:11
Overcast
54°F / 12°C 48°F / 9°C 82% 30.18 in
(1022 mb)
ENE 8.1 mph
(ENE 13 kph)
- 10SM
02:51
Overcast
54°F / 12°C 48°F / 9°C 82% 30.18 in
(1022 mb)
NE 5.8 mph
(NE 9 kph)
- 10SM
01:51
Overcast
54°F / 12°C 48°F / 9°C 82% 30.21 in
(1023 mb)
ENE 9.2 mph
(ENE 15 kph)
- 10SM
00:51
Overcast
52°F / 11°C 48°F / 9°C 88% 30.24 in
(1024 mb)
ENE 10.4 mph
(ENE 17 kph)
- 10SM
00:46
Overcast
52°F / 11°C 48°F / 9°C 88% 30.24 in
(1024 mb)
ENE 8.1 mph
(ENE 13 kph)
- 10SM
00:11
Mostly Cloudy
52°F / 11°C 46°F / 8°C 82% 30.27 in
(1025 mb)
E 6.9 mph
(E 11 kph)
- 10SM
Time Weather Temperature Dewpoint Humidity Pressure Winds Precip Visibility


Weather for websites

WeatherForYou.com, LLC is not responsible for any damages or problems caused by this service. Current weather conditions are obtained from the closest station including government and personal stations which may have varying degrees of accuracy. Weather forecasts are derived from the NOAA NDFD. Like all things, this site belongs to Jesus Christ... He just trusts me to maintain it. If you have any questions or comments email webmaster@weatherforyou.com

Copyright © 2015, WeatherForYou.com LLC. All rights reserved.